Regional Weather Roundup
Issued by NWS

Home | Current Version | Previous Version | Text Only | Print | Product List | Glossary Off
Versions: 1 2 3 4 5 6 7 8 9 10 11 12 13 14 15 16 17 18 19 20 21 22 23 24 25 26 27 28 29 30 31 32 33 34 35 36 37 38 39 40 41 42 43 44 45 46 47 48 49 50

000
ASUS43 KBIS 272010
RWRND

NORTH DAKOTA REGIONAL WEATHER ROUNDUP
NATIONAL WEATHER SERVICE BISMARCK ND
300 PM CDT FRI MAR 27 2015

NOTE: "FAIR" INDICATES FEW OR NO CLOUDS BELOW 12,000 FEET WITH NO
SIGNIFICANT WEATHER AND/OR OBSTRUCTIONS TO VISIBILITY.


NDZ001>003-009>011-017-272100-
NORTHWEST NORTH DAKOTA

CITY           SKY/WX    TMP DP  RH WIND       PRES   REMARKS
WILLISTON      CLOUDY    61  36  39 NW21      29.91F
MINOT          CLOUDY    49  35  58 W10       29.87F
MINOT AFB      PTSUNNY   48  42  77 W7        29.85F
$$

NDZ018>021-031>035-040>046-272100-
SOUTHWEST NORTH DAKOTA

CITY           SKY/WX    TMP DP  RH WIND       PRES   REMARKS
BISMARCK       PTSUNNY   44  30  57 S12       29.93F
DICKINSON      PTSUNNY   65  34  31 NW21G31   29.87F
GARRISON         N/A     47  37  68 W8        29.88F
HETTINGER ARPT SUNNY     64  34  32 NW23G32   29.90F
$$

NDZ004>008-012>016-024-026-027-054-272100-
NORTHEAST NORTH DAKOTA

CITY           SKY/WX    TMP DP  RH WIND       PRES   REMARKS
GRAND FORKS    CLOUDY    34  17  50 S13G20    30.10F
GRND FRKS AFB  CLOUDY    32  21  63 S12       30.09F
DEVILS LAKE    CLOUDY    28  25  86 S15       29.99F WCI  17
$$

NDZ022-023-025-028>030-036>039-047>053-272100-
SOUTHEAST NORTH DAKOTA

CITY           SKY/WX    TMP DP  RH WIND       PRES   REMARKS
FARGO          CLOUDY    36   7  29 S14       30.10F
JAMESTOWN      LGT SNOW  27  24  89 S13       30.01F FOG     WCI  16
$$




USA.gov is the U.S. government's official web portal to all federal, state and local government web resources and services.